Coatesville, PA

9:41 PM EDT on March 29, 2017 (GMT -0400)
Chester County Carlson

Weather History for KMQS - March, 2013

Change the Weather History Date:

Thursday, March 7, 2013

  Actual Average (KILG) Record (KILG)
Temperature  
Mean Temperature 38 °F -  
Max Temperature 44 °F 48 °F 73 °F (2009)
Min Temperature 33 °F 29 °F 5 °F (2015)
Degree Days  
Heating Degree Days 26    
Moisture  
Dew Point 26 °F    
Average Humidity 61    
Maximum Humidity 75    
Minimum Humidity 46    
Precipitation  
Precipitation 0.00 in - - ()
Sea Level Pressure  
Sea Level Pressure 30.04 in    
Wind  
Wind Speed 13 mph (NNW)    
Max Wind Speed 18 mph    
Max Gust Speed 29 mph    
Visibility 10 miles    
Events      
Averages and records for this station are not official NWS values.
T = Trace of Precipitation, MM = Missing Value Source: NWS Daily Summary

Daily Weather History Graph

Daily Weather History Graph

Search for Another Location

Airport or City:

Trip Planner

Search our weather history database for the weather conditions in past years. The results will help you decide how hot, cold, wet, or windy it might be!

Date:

Astronomy

Mar. 07, 2013 Rise Set
Actual Time 6:27 AM EST 6:02 PM EST
Civil Twilight 6:00 AM EST 6:29 PM EST
Nautical Twilight 5:28 AM EST 7:00 PM EST
Astronomical Twilight 4:57 AM EST 7:32 PM EST
Moon 3:25 AM EST (3/7) 1:47 PM EST (3/7)
Length of Visible Light 12h 28m
Length of Day
11h 34m
Waning Crescent, 20% of the Moon is Illuminated
Mar 7
Waning Crescent
Mar 11
New
Mar 19
First Quarter
Mar 27
Full
Apr 3
Last Quarter

Hourly Weather History & Observations

Time (EST) Temp. Windchill Dew Point Humidity Pressure Visibility Wind Dir Wind Speed Gust Speed Precip Events Conditions
12:15 AM 37.4 °F 28.5 °F 28.4 °F 70% 29.95 in 10.0 mi North 15.0 mph 20.7 mph N/A   Mostly Cloudy
12:35 AM 37.4 °F 30.3 °F 28.4 °F 70% 29.96 in 10.0 mi North 10.4 mph 17.3 mph N/A   Scattered Clouds
12:55 AM 35.6 °F 25.5 °F 28.4 °F 75% 29.96 in 10.0 mi North 17.3 mph 23.0 mph N/A   Scattered Clouds
1:15 AM 35.6 °F 26.6 °F 28.4 °F 75% 29.96 in 10.0 mi North 13.8 mph 18.4 mph N/A   Partly Cloudy
1:35 AM 35.6 °F 27.5 °F 26.6 °F 70% 29.97 in 10.0 mi North 11.5 mph 20.7 mph N/A   Scattered Clouds
1:55 AM 35.6 °F 25.9 °F 26.6 °F 70% 29.97 in 10.0 mi North 16.1 mph 20.7 mph N/A   Scattered Clouds
2:15 AM 35.6 °F 27.1 °F 26.6 °F 70% 29.98 in 10.0 mi North 12.7 mph 21.9 mph N/A   Mostly Cloudy
2:35 AM 35.6 °F 27.5 °F 26.6 °F 70% 29.97 in 10.0 mi North 11.5 mph 18.4 mph N/A   Scattered Clouds
2:55 AM 35.6 °F 26.2 °F 26.6 °F 70% 29.98 in 10.0 mi North 15.0 mph 21.9 mph N/A   Mostly Cloudy
3:15 AM 35.6 °F 25.9 °F 26.6 °F 70% 29.98 in 10.0 mi North 16.1 mph 23.0 mph N/A   Scattered Clouds
3:35 AM 35.6 °F 27.1 °F 26.6 °F 70% 29.98 in 10.0 mi North 12.7 mph 18.4 mph N/A   Partly Cloudy
3:55 AM 35.6 °F 26.6 °F 26.6 °F 70% 29.99 in 10.0 mi North 13.8 mph 18.4 mph N/A   Clear
4:15 AM 35.6 °F 26.2 °F 26.6 °F 70% 29.99 in 10.0 mi North 15.0 mph 19.6 mph N/A   Clear
4:35 AM 33.8 °F 25.8 °F 26.6 °F 75% 29.99 in 10.0 mi North 10.4 mph - N/A   Clear
4:55 AM 33.8 °F 25.3 °F 26.6 °F 75% 29.99 in 10.0 mi North 11.5 mph - N/A   Clear
5:15 AM 33.8 °F 25.8 °F 26.6 °F 75% 30.00 in 10.0 mi NNW 10.4 mph - N/A   Clear
5:35 AM 33.8 °F 27.0 °F 26.6 °F 75% 30.00 in 10.0 mi NNW 8.1 mph - N/A   Clear
5:55 AM 33.8 °F 25.8 °F 26.6 °F 75% 30.01 in 10.0 mi North 10.4 mph - N/A   Clear
6:15 AM 33.8 °F 25.8 °F 26.6 °F 75% 30.01 in 10.0 mi North 10.4 mph - N/A   Clear
6:35 AM 33.8 °F 25.3 °F 26.6 °F 75% 30.01 in 10.0 mi North 11.5 mph - N/A   Clear
6:55 AM 33.8 °F 27.0 °F 26.6 °F 75% 30.01 in 10.0 mi North 8.1 mph - N/A   Clear
7:15 AM 35.6 °F 27.5 °F 26.6 °F 70% 30.02 in 10.0 mi North 11.5 mph 18.4 mph N/A   Clear
7:35 AM 35.6 °F 29.9 °F 26.6 °F 70% 30.03 in 10.0 mi North 6.9 mph - N/A   Clear
7:55 AM 37.4 °F 30.3 °F 26.6 °F 65% 30.04 in 10.0 mi North 10.4 mph 17.3 mph N/A   Clear
8:15 AM 37.4 °F 28.2 °F 26.6 °F 65% 30.04 in 10.0 mi North 16.1 mph - N/A   Scattered Clouds
8:35 AM 37.4 °F 29.3 °F 26.6 °F 65% 30.05 in 10.0 mi North 12.7 mph 19.6 mph N/A   Scattered Clouds
9:15 AM 37.4 °F 29.3 °F 26.6 °F 65% 30.07 in 10.0 mi North 12.7 mph 19.6 mph N/A   Mostly Cloudy
9:35 AM 37.4 °F 29.3 °F 26.6 °F 65% 30.07 in 10.0 mi North 12.7 mph 18.4 mph N/A   Mostly Cloudy
9:55 AM 37.4 °F 28.9 °F 26.6 °F 65% 30.07 in 10.0 mi North 13.8 mph 18.4 mph N/A   Mostly Cloudy
10:15 AM 37.4 °F 29.3 °F 26.6 °F 65% 30.08 in 10.0 mi NNW 12.7 mph 17.3 mph N/A   Overcast
10:35 AM 39.2 °F 31.2 °F 26.6 °F 61% 30.08 in 10.0 mi North 13.8 mph 19.6 mph N/A   Mostly Cloudy
10:55 AM 39.2 °F 31.6 °F 26.6 °F 61% 30.08 in 10.0 mi North 12.7 mph 19.6 mph N/A   Scattered Clouds
11:15 AM 41.0 °F 33.5 °F 26.6 °F 57% 30.07 in 10.0 mi North 13.8 mph 21.9 mph N/A   Scattered Clouds
11:35 AM 42.8 °F 34.5 °F 28.4 °F 57% 30.07 in 10.0 mi NW 18.4 mph 24.2 mph N/A   Scattered Clouds
11:55 AM 41.0 °F 32.5 °F 26.6 °F 57% 30.07 in 10.0 mi North 17.3 mph 23.0 mph N/A   Mostly Cloudy
12:15 PM 42.8 °F 35.8 °F 26.6 °F 53% 30.07 in 10.0 mi NNW 13.8 mph 21.9 mph N/A   Scattered Clouds
12:35 PM 42.8 °F 35.4 °F 26.6 °F 53% 30.07 in 10.0 mi NNW 15.0 mph 21.9 mph N/A   Scattered Clouds
12:55 PM 42.8 °F 35.8 °F 28.4 °F 57% 30.06 in 10.0 mi NNW 13.8 mph 24.2 mph N/A   Mostly Cloudy
1:15 PM 42.8 °F 36.2 °F 26.6 °F 53% 30.06 in 10.0 mi NW 12.7 mph 21.9 mph N/A   Overcast
1:35 PM 44.6 °F 37.8 °F 26.6 °F 49% 30.05 in 10.0 mi NNW 15.0 mph 20.7 mph N/A   Mostly Cloudy
1:55 PM 42.8 °F 34.8 °F 26.6 °F 53% 30.05 in 10.0 mi NW 17.3 mph 28.8 mph N/A   Overcast
2:15 PM 44.6 °F 37.4 °F 26.6 °F 49% 30.05 in 10.0 mi NNW 16.1 mph 24.2 mph N/A   Overcast
2:35 PM 44.6 °F 36.9 °F 26.6 °F 49% 30.05 in 10.0 mi NNW 18.4 mph 26.5 mph N/A   Overcast
2:55 PM 42.8 °F 35.4 °F 26.6 °F 53% 30.05 in 10.0 mi NNW 15.0 mph 19.6 mph N/A   Overcast
3:15 PM 42.8 °F 34.5 °F 26.6 °F 53% 30.05 in 10.0 mi NNW 18.4 mph - N/A   Overcast
3:35 PM 44.6 °F 38.4 °F 26.6 °F 49% 30.06 in 10.0 mi NNW 12.7 mph 20.7 mph N/A   Overcast
3:55 PM 44.6 °F 38.4 °F 26.6 °F 49% 30.06 in 10.0 mi NNW 12.7 mph 20.7 mph N/A   Mostly Cloudy
4:15 PM 44.6 °F 38.1 °F 26.6 °F 49% 30.06 in 10.0 mi NNW 13.8 mph 21.9 mph N/A   Mostly Cloudy
4:35 PM 44.6 °F 38.4 °F 24.8 °F 46% 30.06 in 10.0 mi NNW 12.7 mph 21.9 mph N/A   Overcast
4:55 PM 42.8 °F 36.2 °F 24.8 °F 49% 30.06 in 10.0 mi NNW 12.7 mph - N/A   Mostly Cloudy
5:15 PM 42.8 °F 35.1 °F 24.8 °F 49% 30.07 in 10.0 mi NNW 16.1 mph 21.9 mph N/A   Overcast
5:35 PM 42.8 °F 36.2 °F 24.8 °F 49% 30.08 in 10.0 mi North 12.7 mph 20.7 mph N/A   Overcast
5:55 PM 42.8 °F 35.8 °F 24.8 °F 49% 30.08 in 10.0 mi North 13.8 mph 19.6 mph N/A   Overcast
6:15 PM 41.0 °F 34.3 °F 24.8 °F 53% 30.09 in 10.0 mi North 11.5 mph 16.1 mph N/A   Overcast
6:35 PM 41.0 °F 33.1 °F 23.0 °F 49% 30.10 in 10.0 mi North 15.0 mph 18.4 mph N/A   Overcast
6:55 PM 41.0 °F 33.5 °F 23.0 °F 49% 30.10 in 10.0 mi North 13.8 mph 18.4 mph N/A   Overcast
8:35 PM 39.2 °F 32.0 °F 23.0 °F 52% 30.10 in 10.0 mi NNW 11.5 mph 17.3 mph N/A   Overcast
8:55 PM 39.2 °F 32.0 °F 23.0 °F 52% 30.10 in 10.0 mi NNW 11.5 mph 18.4 mph N/A   Overcast
9:15 PM 39.2 °F 32.0 °F 23.0 °F 52% 30.10 in 10.0 mi NNW 11.5 mph 18.4 mph N/A   Overcast
9:35 PM 39.2 °F 33.6 °F 23.0 °F 52% 30.10 in 10.0 mi NNW 8.1 mph - N/A   Overcast
9:55 PM 39.2 °F 32.5 °F 24.8 °F 56% 30.10 in 10.0 mi NNW 10.4 mph - N/A   Overcast
10:15 PM 39.2 °F 32.0 °F 26.6 °F 61% 30.10 in 10.0 mi NNW 11.5 mph 16.1 mph N/A   Overcast
10:35 PM 39.2 °F 30.2 °F 24.8 °F 56% 30.10 in 10.0 mi NNW 17.3 mph 20.7 mph N/A   Overcast
10:55 PM 37.4 °F 29.3 °F 23.0 °F 56% 30.10 in 10.0 mi NNW 12.7 mph 21.9 mph N/A   Overcast
11:15 PM 37.4 °F 27.5 °F 21.2 °F 52% 30.10 in 10.0 mi NNW 18.4 mph 24.2 mph N/A   Overcast
11:35 PM 37.4 °F 28.2 °F 21.2 °F 52% 30.10 in 10.0 mi NNW 16.1 mph 24.2 mph N/A   Mostly Cloudy
11:55 PM 35.6 °F 26.2 °F 21.2 °F 56% 30.09 in 10.0 mi North 15.0 mph 20.7 mph N/A   Clear